Time,TemperatureF,DewpointF,PressureIn,WindDirection,WindDirectionDegrees,WindSpeedMPH,WindSpeedGustMPH,Humidity,HourlyPrecipIn,Conditions,Clouds,dailyrainin,SoftwareType,DateUTC
2013-02-16 00:03:00,30.1,24.0,29.99,WNW,294,6.0,18.0,79,0.00,,,0.00,weatherlink.com 1.10,2013-02-16 05:03:00,
2013-02-16 00:18:00,29.8,24.0,29.99,NW,309,6.0,14.0,79,0.00,,,0.00,weatherlink.com 1.10,2013-02-16 05:18:00,
2013-02-16 00:33:00,29.5,23.0,29.99,NW,309,0.0,9.0,78,0.00,,,0.00,weatherlink.com 1.10,2013-02-16 05:33:00,
2013-02-16 00:48:00,29.2,23.0,29.99,NW,311,2.0,8.0,78,0.00,,,0.00,weatherlink.com 1.10,2013-02-16 05:48:00,
2013-02-16 01:03:00,29.0,23.0,29.98,NW,307,7.0,13.0,77,0.00,,,0.00,weatherlink.com 1.10,2013-02-16 06:03:00,
2013-02-16 01:18:00,28.9,23.0,29.98,West,281,0.0,9.0,78,0.00,,,0.00,weatherlink.com 1.10,2013-02-16 06:18:00,
2013-02-16 01:33:00,28.9,23.0,29.98,North,355,0.0,11.0,77,0.00,,,0.00,weatherlink.com 1.10,2013-02-16 06:33:00,
2013-02-16 01:48:00,28.8,23.0,29.97,WNW,284,1.0,9.0,78,0.00,,,0.00,weatherlink.com 1.10,2013-02-16 06:48:00,
2013-02-16 02:04:00,28.7,23.0,29.96,WNW,292,0.0,4.0,78,0.00,,,0.00,weatherlink.com 1.10,2013-02-16 07:04:00,
2013-02-16 02:19:00,28.6,23.0,29.96,WNW,296,0.0,5.0,78,0.00,,,0.00,weatherlink.com 1.10,2013-02-16 07:19:00,
2013-02-16 02:34:00,28.5,23.0,29.96,WNW,288,7.0,11.0,79,0.00,,,0.00,weatherlink.com 1.10,2013-02-16 07:34:00,
2013-02-16 02:49:00,28.4,23.0,29.96,WNW,293,1.0,9.0,79,0.00,,,0.00,weatherlink.com 1.10,2013-02-16 07:49:00,
2013-02-16 03:04:00,28.3,22.0,29.95,West,266,0.0,9.0,78,0.00,,,0.00,weatherlink.com 1.10,2013-02-16 08:04:00,
2013-02-16 03:19:00,28.3,22.0,29.94,West,274,8.0,13.0,77,0.00,,,0.00,weatherlink.com 1.10,2013-02-16 08:19:00,
2013-02-16 03:34:00,28.3,22.0,29.94,West,263,11.0,16.0,77,0.00,,,0.00,weatherlink.com 1.10,2013-02-16 08:34:00,
2013-02-16 03:49:00,28.3,21.0,29.93,West,275,9.0,15.0,74,0.00,,,0.00,weatherlink.com 1.10,2013-02-16 08:49:00,
2013-02-16 04:04:00,28.2,21.0,29.93,NW,311,1.0,16.0,73,0.00,,,0.00,weatherlink.com 1.10,2013-02-16 09:04:00,
2013-02-16 04:19:00,27.9,20.0,29.92,NW,309,0.0,8.0,73,0.00,,,0.00,weatherlink.com 1.10,2013-02-16 09:19:00,
2013-02-16 04:34:00,27.8,20.0,29.92,WNW,294,0.0,5.0,73,0.00,,,0.00,weatherlink.com 1.10,2013-02-16 09:34:00,
2013-02-16 04:49:00,27.7,20.0,29.92,WNW,298,0.0,3.0,72,0.00,,,0.00,weatherlink.com 1.10,2013-02-16 09:49:00,
2013-02-16 05:04:00,27.5,20.0,29.92,WNW,298,0.0,0.0,72,0.00,,,0.00,weatherlink.com 1.10,2013-02-16 10:04:00,
2013-02-16 05:19:00,27.4,20.0,29.92,WNW,287,0.0,3.0,73,0.00,,,0.00,weatherlink.com 1.10,2013-02-16 10:19:00,
2013-02-16 05:34:00,27.4,20.0,29.92,WNW,282,0.0,8.0,73,0.00,,,0.00,weatherlink.com 1.10,2013-02-16 10:34:00,
2013-02-16 05:49:00,27.3,19.0,29.92,NNE,12,0.0,9.0,72,0.00,,,0.00,weatherlink.com 1.10,2013-02-16 10:49:00,
2013-02-16 06:04:00,27.4,19.0,29.92,North,5,4.0,13.0,71,0.00,,,0.00,weatherlink.com 1.10,2013-02-16 11:04:00,
2013-02-16 06:19:00,27.1,20.0,29.92,NNW,331,9.0,13.0,74,0.00,,,0.00,weatherlink.com 1.10,2013-02-16 11:19:00,
2013-02-16 06:34:00,26.8,20.0,29.92,NNW,341,0.0,16.0,75,0.00,,,0.00,weatherlink.com 1.10,2013-02-16 11:34:00,
2013-02-16 06:49:00,26.7,20.0,29.92,NW,317,1.0,18.0,75,0.00,,,0.00,weatherlink.com 1.10,2013-02-16 11:49:00,
2013-02-16 07:04:00,26.7,20.0,29.92,NW,325,1.0,17.0,75,0.00,,,0.00,weatherlink.com 1.10,2013-02-16 12:04:00,
2013-02-16 07:19:00,26.7,20.0,29.92,North,355,5.0,14.0,75,0.00,,,0.00,weatherlink.com 1.10,2013-02-16 12:19:00,
2013-02-16 07:34:00,26.6,20.0,29.93,North,5,7.0,11.0,76,0.00,,,0.00,weatherlink.com 1.10,2013-02-16 12:34:00,
2013-02-16 07:49:00,26.6,20.0,29.92,North,9,5.0,11.0,76,0.00,,,0.00,weatherlink.com 1.10,2013-02-16 12:49:00,
2013-02-16 08:04:00,26.5,20.0,29.92,NNW,346,10.0,12.0,77,0.00,,,0.00,weatherlink.com 1.10,2013-02-16 13:04:00,
2013-02-16 08:19:00,26.6,20.0,29.92,North,5,5.0,10.0,77,0.00,,,0.00,weatherlink.com 1.10,2013-02-16 13:19:00,
2013-02-16 08:34:00,27.0,21.0,29.92,NE,38,7.0,10.0,78,0.00,,,0.00,weatherlink.com 1.10,2013-02-16 13:34:00,
2013-02-16 08:49:00,26.7,20.0,29.92,NNE,13,10.0,14.0,77,0.00,,,0.00,weatherlink.com 1.10,2013-02-16 13:49:00,
2013-02-16 09:04:00,26.2,20.0,29.92,North,5,10.0,12.0,76,0.00,,,0.00,weatherlink.com 1.10,2013-02-16 14:04:00,
2013-02-16 09:19:00,26.0,19.0,29.92,NNE,22,5.0,13.0,76,0.00,,,0.00,weatherlink.com 1.10,2013-02-16 14:19:00,
2013-02-16 09:34:00,26.1,20.0,29.91,NNE,30,6.0,12.0,77,0.00,,,0.00,weatherlink.com 1.10,2013-02-16 14:34:00,
2013-02-16 09:49:00,26.0,20.0,29.92,North,10,6.0,14.0,77,0.00,,,0.00,weatherlink.com 1.10,2013-02-16 14:49:00,
2013-02-16 10:04:00,26.0,20.0,29.92,NNE,30,7.0,11.0,78,0.00,,,0.00,weatherlink.com 1.10,2013-02-16 15:04:00,
2013-02-16 10:19:00,26.3,20.0,29.92,NW,323,4.0,8.0,76,0.00,,,0.00,weatherlink.com 1.10,2013-02-16 15:19:00,
2013-02-16 10:34:00,26.5,19.0,29.92,NNE,27,3.0,8.0,74,0.00,,,0.00,weatherlink.com 1.10,2013-02-16 15:34:00,
2013-02-16 10:49:00,26.6,19.0,29.91,NNW,348,6.0,10.0,74,0.00,,,0.00,weatherlink.com 1.10,2013-02-16 15:49:00,
2013-02-16 11:04:00,26.6,19.0,29.91,NNW,344,8.0,11.0,74,0.00,,,0.00,weatherlink.com 1.10,2013-02-16 16:04:00,
2013-02-16 11:19:00,27.2,20.0,29.91,NNW,329,0.0,12.0,74,0.00,,,0.00,weatherlink.com 1.10,2013-02-16 16:19:00,
2013-02-16 11:34:00,27.1,20.0,29.90,North,360,0.0,8.0,76,0.00,,,0.00,weatherlink.com 1.10,2013-02-16 16:34:00,
2013-02-16 11:49:00,26.9,20.0,29.90,North,355,4.0,10.0,76,0.00,,,0.00,weatherlink.com 1.10,2013-02-16 16:49:00,
2013-02-16 12:05:00,27.1,21.0,29.91,NNE,19,2.0,7.0,79,0.00,,,0.00,weatherlink.com 1.10,2013-02-16 17:05:00,
2013-02-16 12:20:00,27.2,21.0,29.89,NNE,27,2.0,10.0,77,0.00,,,0.00,weatherlink.com 1.10,2013-02-16 17:20:00,
2013-02-16 12:35:00,27.7,20.0,29.88,NW,313,1.0,9.0,74,0.00,,,0.00,weatherlink.com 1.10,2013-02-16 17:35:00,
2013-02-16 12:50:00,27.4,20.0,29.88,North,5,10.0,12.0,74,0.00,,,0.00,weatherlink.com 1.10,2013-02-16 17:50:00,
2013-02-16 13:05:00,26.6,20.0,29.88,NNE,22,4.0,12.0,75,0.00,,,0.00,weatherlink.com 1.10,2013-02-16 18:05:00,
2013-02-16 13:20:00,26.9,20.0,29.87,WNW,300,1.0,12.0,75,0.00,,,0.00,weatherlink.com 1.10,2013-02-16 18:20:00,
2013-02-16 13:35:00,27.3,20.0,29.87,NE,47,12.0,16.0,74,0.00,,,0.00,weatherlink.com 1.10,2013-02-16 18:35:00,
2013-02-16 13:50:00,26.8,20.0,29.87,North,5,7.0,15.0,74,0.00,,,0.00,weatherlink.com 1.10,2013-02-16 18:50:00,
2013-02-16 14:05:00,27.1,20.0,29.87,North,360,0.0,12.0,75,0.00,,,0.00,weatherlink.com 1.10,2013-02-16 19:05:00,
2013-02-16 14:20:00,27.0,20.0,29.86,North,5,7.0,18.0,74,0.00,,,0.00,weatherlink.com 1.10,2013-02-16 19:20:00,
2013-02-16 14:35:00,26.4,20.0,29.86,North,11,10.0,19.0,76,0.00,,,0.00,weatherlink.com 1.10,2013-02-16 19:35:00,
2013-02-16 14:50:00,26.0,20.0,29.86,WNW,286,8.0,18.0,78,0.00,,,0.00,weatherlink.com 1.10,2013-02-16 19:50:00,
2013-02-16 15:05:00,26.5,16.0,29.86,WNW,294,16.0,23.0,66,0.00,,,0.00,weatherlink.com 1.10,2013-02-16 20:05:00,
2013-02-16 15:20:00,26.3,14.0,29.86,WNW,302,9.0,23.0,61,0.00,,,0.00,weatherlink.com 1.10,2013-02-16 20:20:00,
2013-02-16 15:35:00,26.4,14.0,29.85,North,349,10.0,18.0,59,0.00,,,0.00,weatherlink.com 1.10,2013-02-16 20:35:00,
2013-02-16 15:50:00,26.7,13.0,29.86,North,5,10.0,21.0,56,0.00,,,0.00,weatherlink.com 1.10,2013-02-16 20:50:00,
2013-02-16 16:05:00,26.8,14.0,29.86,North,360,10.0,14.0,58,0.00,,,0.00,weatherlink.com 1.10,2013-02-16 21:05:00,
2013-02-16 16:20:00,25.2,12.0,29.87,North,355,5.0,23.0,57,0.00,,,0.00,weatherlink.com 1.10,2013-02-16 21:20:00,
2013-02-16 16:35:00,24.6,13.0,29.88,NNE,19,17.0,19.0,61,0.00,,,0.00,weatherlink.com 1.10,2013-02-16 21:35:00,
2013-02-16 16:50:00,23.9,13.0,29.88,North,5,9.0,23.0,63,0.00,,,0.00,weatherlink.com 1.10,2013-02-16 21:50:00,
2013-02-16 17:05:00,23.6,13.0,29.88,North,355,17.0,20.0,64,0.00,,,0.00,weatherlink.com 1.10,2013-02-16 22:05:00,
2013-02-16 17:20:00,23.8,10.0,29.89,WNW,284,24.0,24.0,57,0.00,,,0.00,weatherlink.com 1.10,2013-02-16 22:20:00,
2013-02-16 17:35:00,23.6,10.0,29.89,WSW,242,17.0,19.0,56,0.00,,,0.00,weatherlink.com 1.10,2013-02-16 22:35:00,
2013-02-16 17:50:00,23.3,10.0,29.89,North,9,6.0,18.0,57,0.00,,,0.00,weatherlink.com 1.10,2013-02-16 22:50:00,
2013-02-16 18:05:00,22.8,10.0,29.90,NW,306,5.0,22.0,57,0.00,,,0.00,weatherlink.com 1.10,2013-02-16 23:05:00,
2013-02-16 18:20:00,22.4,10.0,29.90,NW,323,6.0,22.0,58,0.00,,,0.00,weatherlink.com 1.10,2013-02-16 23:20:00,
2013-02-16 18:35:00,22.2,10.0,29.91,NW,304,10.0,22.0,59,0.00,,,0.00,weatherlink.com 1.10,2013-02-16 23:35:00,
2013-02-16 18:50:00,21.9,11.0,29.91,West,281,10.0,25.0,62,0.00,,,0.00,weatherlink.com 1.10,2013-02-16 23:50:00,
2013-02-16 19:06:00,21.6,11.0,29.92,WNW,298,10.0,22.0,64,0.00,,,0.00,weatherlink.com 1.10,2013-02-17 00:06:00,
2013-02-16 19:21:00,21.3,12.0,29.92,NW,313,5.0,19.0,67,0.00,,,0.00,weatherlink.com 1.10,2013-02-17 00:21:00,
2013-02-16 19:36:00,21.3,12.0,29.93,West,259,2.0,13.0,67,0.00,,,0.00,weatherlink.com 1.10,2013-02-17 00:36:00,
2013-02-16 19:51:00,20.2,13.0,29.93,West,274,6.0,20.0,75,0.00,,,0.00,weatherlink.com 1.10,2013-02-17 00:51:00,
2013-02-16 20:06:00,19.9,14.0,29.93,WNW,291,9.0,23.0,76,0.00,,,0.00,weatherlink.com 1.10,2013-02-17 01:06:00,
2013-02-16 20:21:00,20.0,13.0,29.93,NNW,342,3.0,12.0,74,0.00,,,0.00,weatherlink.com 1.10,2013-02-17 01:21:00,
2013-02-16 20:36:00,20.3,13.0,29.93,NW,320,6.0,15.0,72,0.00,,,0.00,weatherlink.com 1.10,2013-02-17 01:36:00,
2013-02-16 20:51:00,20.4,12.0,29.94,NW,315,12.0,19.0,70,0.00,,,0.00,weatherlink.com 1.10,2013-02-17 01:51:00,
2013-02-16 21:06:00,20.3,12.0,29.94,West,280,8.0,17.0,69,0.00,,,0.00,weatherlink.com 1.10,2013-02-17 02:06:00,
2013-02-16 21:21:00,20.3,11.0,29.95,WNW,294,13.0,25.0,68,0.00,,,0.00,weatherlink.com 1.10,2013-02-17 02:21:00,
2013-02-16 21:36:00,20.0,11.0,29.95,West,266,10.0,22.0,68,0.00,,,0.00,weatherlink.com 1.10,2013-02-17 02:36:00,
2013-02-16 21:51:00,18.8,14.0,29.95,WSW,248,8.0,14.0,81,0.00,,,0.00,weatherlink.com 1.10,2013-02-17 02:51:00,
2013-02-16 22:06:00,18.0,14.0,29.97,West,277,16.0,22.0,84,0.00,,,0.00,weatherlink.com 1.10,2013-02-17 03:06:00,
2013-02-16 22:21:00,18.1,14.0,29.97,NW,317,9.0,26.0,82,0.00,,,0.00,weatherlink.com 1.10,2013-02-17 03:21:00,
2013-02-16 22:36:00,18.4,13.0,29.96,WNW,296,10.0,20.0,80,0.00,,,0.00,weatherlink.com 1.10,2013-02-17 03:36:00,
2013-02-16 22:51:00,18.7,10.0,29.96,NNW,333,15.0,21.0,70,0.00,,,0.00,weatherlink.com 1.10,2013-02-17 03:51:00,
2013-02-16 23:06:00,18.8,9.0,29.96,WNW,290,12.0,22.0,67,0.00,,,0.00,weatherlink.com 1.10,2013-02-17 04:06:00,
2013-02-16 23:21:00,18.7,10.0,29.96,West,278,14.0,20.0,68,0.00,,,0.00,weatherlink.com 1.10,2013-02-17 04:21:00,
2013-02-16 23:36:00,18.4,9.0,29.96,NW,305,3.0,19.0,67,0.00,,,0.00,weatherlink.com 1.10,2013-02-17 04:36:00,
2013-02-16 23:51:00,18.4,9.0,29.96,WNW,289,26.0,29.0,66,0.00,,,0.00,weatherlink.com 1.10,2013-02-17 04:51:00,